SJX312 KSFO-KLAX

Flight info

Callsign SJX312
Flight time 0h 56m
Altitude 35000
Route WESLA5 SUSEY DCT EBAYE DCT BURGL IRNMN2
Aircraft A21N/M-L/LB1

Departure

Time 2026-04-21 03:39
Airport San Francisco International Airport (KSFO)

Arrival

Time 2026-04-21 04:36
Airport Los Angeles International Airport (KLAX)
Time Latitude Longitude Altitude Speed Heading
2026-04-21 03:17 37.61922 -122.38357 28 ft 0 kts 291°
2026-04-21 03:28 37.61918 -122.38344 27 ft 3 kts 285°
2026-04-21 03:28 37.61913 -122.38325 27 ft 3 kts 294°
2026-04-21 03:28 37.61904 -122.38307 27 ft 3 kts 331°
2026-04-21 03:28 37.61889 -122.38303 27 ft 3 kts 15°
2026-04-21 03:29 37.61871 -122.38312 27 ft 2 kts 27°
2026-04-21 03:29 37.61865 -122.38316 27 ft 0 kts 27°
2026-04-21 03:29 37.61864 -122.38316 27 ft 0 kts 27°
2026-04-21 03:32 37.61872 -122.38312 27 ft 3 kts 27°
2026-04-21 03:32 37.61897 -122.38295 27 ft 6 kts 27°
2026-04-21 03:32 37.61942 -122.38265 27 ft 9 kts 27°
2026-04-21 03:33 37.61962 -122.38252 27 ft 0 kts 28°
2026-04-21 03:33 37.61966 -122.38246 27 ft 2 kts 50°
2026-04-21 03:33 37.61968 -122.38212 27 ft 6 kts 112°
2026-04-21 03:33 37.61946 -122.38155 27 ft 9 kts 118°
2026-04-21 03:34 37.61911 -122.38074 27 ft 12 kts 118°
2026-04-21 03:34 37.61865 -122.37965 27 ft 16 kts 118°
2026-04-21 03:34 37.61819 -122.37832 27 ft 18 kts 109°
2026-04-21 03:34 37.61767 -122.37670 27 ft 21 kts 111°
2026-04-21 03:35 37.61711 -122.37494 27 ft 23 kts 119°
2026-04-21 03:35 37.61633 -122.37310 27 ft 25 kts 116°
2026-04-21 03:35 37.61554 -122.37118 27 ft 26 kts 118°
2026-04-21 03:35 37.61465 -122.36908 27 ft 27 kts 122°
2026-04-21 03:36 37.61406 -122.36837 27 ft 11 kts 137°
2026-04-21 03:36 37.61354 -122.36752 27 ft 14 kts 117°
2026-04-21 03:36 37.61325 -122.36682 27 ft 15 kts 117°
2026-04-21 03:36 37.61256 -122.36518 27 ft 18 kts 118°
2026-04-21 03:37 37.61195 -122.36377 27 ft 19 kts 118°
2026-04-21 03:37 37.61129 -122.36221 27 ft 21 kts 118°
2026-04-21 03:37 37.61058 -122.36053 27 ft 21 kts 117°
2026-04-21 03:37 37.61052 -122.35993 27 ft 7 kts 93°
2026-04-21 03:38 37.61062 -122.35951 27 ft 8 kts 55°
2026-04-21 03:38 37.61131 -122.35877 27 ft 11 kts 35°
2026-04-21 03:38 37.61183 -122.35872 27 ft 13 kts 325°
2026-04-21 03:38 37.61229 -122.35974 27 ft 16 kts 296°
2026-04-21 03:39 37.61377 -122.36335 27 ft 78 kts 296°
2026-04-21 03:39 37.61719 -122.37141 28 ft 131 kts 297°
2026-04-21 03:39 37.62184 -122.38256 59 ft 165 kts 296°
2026-04-21 03:39 37.62666 -122.39412 747 ft 148 kts 295°
2026-04-21 03:40 37.63178 -122.40671 810 ft 179 kts 293°
2026-04-21 03:40 37.63779 -122.42146 1205 ft 197 kts 296°
2026-04-21 03:40 37.64469 -122.43688 1870 ft 210 kts 296°
2026-04-21 03:40 37.65192 -122.45314 2423 ft 228 kts 295°
2026-04-21 03:41 37.65974 -122.47055 3135 ft 238 kts 295°
2026-04-21 03:41 37.66809 -122.48941 3944 ft 247 kts 292°
2026-04-21 03:41 37.67211 -122.51008 4503 ft 254 kts 265°
2026-04-21 03:41 37.66775 -122.53145 5244 ft 253 kts 238°
2026-04-21 03:42 37.65631 -122.54778 6094 ft 250 kts 213°
2026-04-21 03:42 37.64041 -122.55600 6986 ft 249 kts 190°
2026-04-21 03:42 37.62324 -122.55458 7886 ft 253 kts 166°
2026-04-21 03:42 37.60703 -122.54572 8838 ft 255 kts 159°
2026-04-21 03:43 37.59121 -122.53570 9782 ft 256 kts 160°
2026-04-21 03:43 37.57491 -122.52563 10394 ft 269 kts 160°
2026-04-21 03:43 37.55792 -122.51539 10690 ft 290 kts 160°
2026-04-21 03:43 37.53902 -122.50412 10957 ft 312 kts 160°
2026-04-21 03:44 37.51878 -122.49210 11267 ft 329 kts 160°
2026-04-21 03:44 37.49821 -122.47952 11911 ft 336 kts 156°
2026-04-21 03:44 37.47940 -122.46173 12704 ft 345 kts 143°
2026-04-21 03:44 37.46297 -122.43969 13484 ft 348 kts 140°
2026-04-21 03:45 37.44677 -122.41703 14175 ft 348 kts 140°
2026-04-21 03:45 37.43051 -122.39451 14780 ft 351 kts 140°
2026-04-21 03:45 37.41392 -122.37175 15331 ft 355 kts 140°
2026-04-21 03:45 37.39715 -122.34884 15861 ft 358 kts 140°
2026-04-21 03:46 37.38019 -122.32577 16351 ft 362 kts 140°
2026-04-21 03:46 37.36306 -122.30250 16848 ft 365 kts 140°
2026-04-21 03:46 37.34578 -122.27904 17359 ft 368 kts 140°
2026-04-21 03:46 37.32841 -122.25549 17858 ft 370 kts 141°
2026-04-21 03:47 37.31106 -122.23198 18319 ft 373 kts 140°
2026-04-21 03:47 37.29310 -122.20768 18753 ft 377 kts 140°
2026-04-21 03:47 37.27523 -122.18351 19153 ft 381 kts 141°
2026-04-21 03:47 37.25720 -122.15914 19552 ft 385 kts 140°
2026-04-21 03:48 37.23916 -122.13478 19926 ft 389 kts 141°
2026-04-21 03:48 37.22052 -122.10962 20343 ft 392 kts 141°
2026-04-21 03:48 37.20193 -122.08457 20769 ft 396 kts 141°
2026-04-21 03:48 37.18312 -122.05927 21158 ft 399 kts 140°
2026-04-21 03:49 37.16428 -122.03387 21618 ft 402 kts 140°
2026-04-21 03:49 37.14516 -122.00815 22038 ft 406 kts 141°
2026-04-21 03:49 37.12614 -121.98257 22425 ft 410 kts 141°
2026-04-21 03:49 37.10659 -121.95630 22841 ft 414 kts 141°
2026-04-21 03:50 37.08683 -121.92980 23244 ft 418 kts 141°
2026-04-21 03:50 37.06697 -121.90318 23645 ft 422 kts 141°
2026-04-21 03:50 37.04698 -121.87642 23988 ft 424 kts 141°
2026-04-21 03:50 37.02677 -121.84935 24342 ft 427 kts 141°
2026-04-21 03:51 37.00650 -121.82221 24730 ft 428 kts 141°
2026-04-21 03:51 36.98609 -121.79493 25029 ft 431 kts 141°
2026-04-21 03:51 36.96557 -121.76753 25330 ft 435 kts 141°
2026-04-21 03:51 36.94480 -121.73980 25643 ft 438 kts 141°
2026-04-21 03:52 36.92399 -121.71206 25969 ft 441 kts 141°
2026-04-21 03:52 36.90299 -121.68406 26272 ft 443 kts 141°
2026-04-21 03:52 36.88191 -121.65603 26582 ft 446 kts 141°
2026-04-21 03:52 36.86073 -121.62788 26949 ft 446 kts 141°
2026-04-21 03:53 36.83960 -121.59977 27336 ft 446 kts 141°
2026-04-21 03:53 36.81842 -121.57162 27696 ft 446 kts 141°
2026-04-21 03:53 36.79723 -121.54353 28067 ft 446 kts 142°
2026-04-21 03:53 36.77595 -121.51538 28366 ft 446 kts 141°
2026-04-21 03:54 36.75480 -121.48737 28763 ft 445 kts 142°
2026-04-21 03:54 36.73355 -121.45925 29139 ft 445 kts 142°
2026-04-21 03:54 36.71243 -121.43130 29488 ft 445 kts 142°
2026-04-21 03:54 36.69118 -121.40325 29836 ft 445 kts 142°
2026-04-21 03:55 36.66995 -121.37525 30192 ft 445 kts 142°
2026-04-21 03:55 36.64876 -121.34730 30527 ft 444 kts 142°
2026-04-21 03:55 36.62766 -121.31950 30869 ft 444 kts 142°
2026-04-21 03:55 36.60646 -121.29160 31210 ft 443 kts 142°
2026-04-21 03:56 36.58531 -121.26377 31558 ft 442 kts 142°
2026-04-21 03:56 36.56425 -121.23609 31907 ft 441 kts 142°
2026-04-21 03:56 36.54347 -121.20882 32237 ft 440 kts 142°
2026-04-21 03:56 36.52245 -121.18129 32475 ft 441 kts 142°
2026-04-21 03:57 36.50140 -121.15372 32702 ft 442 kts 142°
2026-04-21 03:57 36.48022 -121.12599 32989 ft 442 kts 142°
2026-04-21 03:57 36.45915 -121.09839 33297 ft 442 kts 142°
2026-04-21 03:57 36.43809 -121.07080 33578 ft 441 kts 141°
2026-04-21 03:58 36.41782 -121.04253 33833 ft 443 kts 139°
2026-04-21 03:58 36.39752 -121.01333 34074 ft 443 kts 139°
2026-04-21 03:58 36.37781 -120.98493 34279 ft 443 kts 139°
2026-04-21 03:58 36.35745 -120.95564 34496 ft 443 kts 139°
2026-04-21 03:59 36.33764 -120.92719 34699 ft 443 kts 140°
2026-04-21 03:59 36.31723 -120.89791 34928 ft 443 kts 140°
2026-04-21 04:00 36.25736 -120.81210 35002 ft 444 kts 140°
2026-04-21 04:00 36.21655 -120.75383 34995 ft 444 kts 139°
2026-04-21 04:01 36.17681 -120.69713 35004 ft 444 kts 139°
2026-04-21 04:01 36.13629 -120.63951 35010 ft 448 kts 139°
2026-04-21 04:02 36.09430 -120.57978 35018 ft 455 kts 139°
2026-04-21 04:02 36.05261 -120.52061 35013 ft 458 kts 139°
2026-04-21 04:03 36.01095 -120.46154 35005 ft 456 kts 139°
2026-04-21 04:03 35.96968 -120.40316 35024 ft 457 kts 139°
2026-04-21 04:04 35.92793 -120.34422 35007 ft 458 kts 139°
2026-04-21 04:04 35.88608 -120.28528 35012 ft 458 kts 139°
2026-04-21 04:05 35.83849 -120.23690 35001 ft 442 kts 155°
2026-04-21 04:05 35.78618 -120.19799 35011 ft 441 kts 156°
2026-04-21 04:06 35.73370 -120.15884 34985 ft 443 kts 155°
2026-04-21 04:06 35.68133 -120.11944 34997 ft 442 kts 155°
2026-04-21 04:07 35.62868 -120.07977 34997 ft 446 kts 154°
2026-04-21 04:07 35.57578 -120.03980 34981 ft 447 kts 155°
2026-04-21 04:08 35.52296 -120.00001 35000 ft 448 kts 155°
2026-04-21 04:08 35.47003 -119.96022 34997 ft 448 kts 155°
2026-04-21 04:09 35.41698 -119.92034 34982 ft 448 kts 155°
2026-04-21 04:09 35.36390 -119.88056 34990 ft 448 kts 155°
2026-04-21 04:10 35.31073 -119.84074 34989 ft 448 kts 155°
2026-04-21 04:10 35.25912 -119.79734 34954 ft 453 kts 148°
2026-04-21 04:11 35.20997 -119.75080 34960 ft 444 kts 148°
2026-04-21 04:11 35.16107 -119.70494 34952 ft 444 kts 148°
2026-04-21 04:12 35.11209 -119.65928 34966 ft 444 kts 148°
2026-04-21 04:12 35.06330 -119.61385 34572 ft 438 kts 148°
2026-04-21 04:12 35.03885 -119.59118 33331 ft 448 kts 148°
2026-04-21 04:13 35.01407 -119.56821 32144 ft 458 kts 148°
2026-04-21 04:13 34.98882 -119.54475 31300 ft 458 kts 148°
2026-04-21 04:13 34.96354 -119.52128 30563 ft 456 kts 148°
2026-04-21 04:13 34.93905 -119.49858 29838 ft 456 kts 148°
2026-04-21 04:14 34.91300 -119.47444 28936 ft 457 kts 148°
2026-04-21 04:14 34.88765 -119.45139 28285 ft 456 kts 149°
2026-04-21 04:14 34.86202 -119.42858 27750 ft 455 kts 149°
2026-04-21 04:14 34.83648 -119.40589 27228 ft 452 kts 148°
2026-04-21 04:15 34.81135 -119.38343 26688 ft 446 kts 148°
2026-04-21 04:15 34.78653 -119.36128 26141 ft 441 kts 148°
2026-04-21 04:15 34.76199 -119.33938 25593 ft 436 kts 149°
2026-04-21 04:15 34.73781 -119.31788 25177 ft 425 kts 149°
2026-04-21 04:16 34.71427 -119.29721 24901 ft 412 kts 149°
2026-04-21 04:16 34.69142 -119.27727 24642 ft 399 kts 149°
2026-04-21 04:16 34.66911 -119.25783 24160 ft 393 kts 149°
2026-04-21 04:16 34.64701 -119.23857 23622 ft 389 kts 149°
2026-04-21 04:17 34.62524 -119.21979 23079 ft 383 kts 150°
2026-04-21 04:17 34.60356 -119.20115 22451 ft 381 kts 150°
2026-04-21 04:17 34.58213 -119.18272 21924 ft 375 kts 150°
2026-04-21 04:17 34.56095 -119.16449 21399 ft 371 kts 150°
2026-04-21 04:18 34.53987 -119.14595 20805 ft 368 kts 149°
2026-04-21 04:18 34.51961 -119.12795 20243 ft 365 kts 149°
2026-04-21 04:18 34.49926 -119.10987 19733 ft 360 kts 149°
2026-04-21 04:18 34.47915 -119.09203 19243 ft 357 kts 149°
2026-04-21 04:19 34.45953 -119.07466 18773 ft 354 kts 149°
2026-04-21 04:19 34.43946 -119.05690 18300 ft 350 kts 149°
2026-04-21 04:19 34.41987 -119.03980 17817 ft 348 kts 150°
2026-04-21 04:19 34.40015 -119.02281 17356 ft 348 kts 150°
2026-04-21 04:20 34.38058 -119.00593 16901 ft 344 kts 150°
2026-04-21 04:20 34.36135 -118.98928 16454 ft 339 kts 149°
2026-04-21 04:20 34.34206 -118.97263 16049 ft 347 kts 150°
2026-04-21 04:20 34.32162 -118.95523 15714 ft 371 kts 149°
2026-04-21 04:21 34.30034 -118.93737 15372 ft 374 kts 150°
2026-04-21 04:21 34.27898 -118.91954 15042 ft 372 kts 150°
2026-04-21 04:21 34.25773 -118.90188 14721 ft 371 kts 150°
2026-04-21 04:21 34.23651 -118.88425 14394 ft 369 kts 150°
2026-04-21 04:22 34.21543 -118.86679 14096 ft 368 kts 150°
2026-04-21 04:22 34.19430 -118.84933 13763 ft 367 kts 150°
2026-04-21 04:22 34.17332 -118.83203 13418 ft 366 kts 149°
2026-04-21 04:22 34.15231 -118.81476 13060 ft 364 kts 149°
2026-04-21 04:23 34.13143 -118.79765 12714 ft 363 kts 149°
2026-04-21 04:23 34.11060 -118.78067 12361 ft 360 kts 149°
2026-04-21 04:23 34.09192 -118.76103 11995 ft 354 kts 135°
2026-04-21 04:23 34.07701 -118.73861 11696 ft 343 kts 131°
2026-04-21 04:24 34.06284 -118.71612 11510 ft 331 kts 131°
2026-04-21 04:24 34.04922 -118.69460 11361 ft 318 kts 132°
2026-04-21 04:24 34.03615 -118.67379 11214 ft 307 kts 129°
2026-04-21 04:24 34.02965 -118.65892 11104 ft 305 kts 113°
2026-04-21 04:25 34.02505 -118.62571 10922 ft 295 kts 101°
2026-04-21 04:25 34.02315 -118.60165 10616 ft 291 kts 100°
2026-04-21 04:25 34.02114 -118.57733 10236 ft 290 kts 101°
2026-04-21 04:25 34.01975 -118.56137 9983 ft 288 kts 101°
2026-04-21 04:26 34.01688 -118.52975 9241 ft 286 kts 101°
2026-04-21 04:26 34.01538 -118.51380 8904 ft 284 kts 101°
2026-04-21 04:26 34.01235 -118.48275 8298 ft 281 kts 101°
2026-04-21 04:26 34.00999 -118.45948 7973 ft 279 kts 101°
2026-04-21 04:27 34.00836 -118.44384 7744 ft 277 kts 100°
2026-04-21 04:27 34.01147 -118.41365 7233 ft 283 kts 76°
2026-04-21 04:27 34.01802 -118.39142 6910 ft 281 kts 72°
2026-04-21 04:27 34.02269 -118.37663 6716 ft 278 kts 73°
2026-04-21 04:28 34.02798 -118.35461 6456 ft 271 kts 81°
2026-04-21 04:28 34.03206 -118.33266 6165 ft 267 kts 77°
2026-04-21 04:28 34.03657 -118.31132 5946 ft 259 kts 79°
2026-04-21 04:28 34.04031 -118.29043 5664 ft 255 kts 81°
2026-04-21 04:29 34.04368 -118.26957 5330 ft 253 kts 80°
2026-04-21 04:29 34.04733 -118.24930 5063 ft 249 kts 79°
2026-04-21 04:29 34.05121 -118.22869 4724 ft 248 kts 79°
2026-04-21 04:29 34.05471 -118.20843 4385 ft 247 kts 81°
2026-04-21 04:30 34.05760 -118.18831 4014 ft 248 kts 85°
2026-04-21 04:30 34.05549 -118.16801 3593 ft 246 kts 112°
2026-04-21 04:30 34.04586 -118.15145 3188 ft 245 kts 140°
2026-04-21 04:30 34.03168 -118.14246 2800 ft 244 kts 167°
2026-04-21 04:31 34.01528 -118.14240 2507 ft 239 kts 195°
2026-04-21 04:31 34.00159 -118.15097 2237 ft 234 kts 223°
2026-04-21 04:31 33.99062 -118.16561 2168 ft 226 kts 231°
2026-04-21 04:31 33.98089 -118.18002 2179 ft 225 kts 232°
2026-04-21 04:32 33.97352 -118.19671 2180 ft 227 kts 251°
2026-04-21 04:32 33.97023 -118.21466 2191 ft 227 kts 263°
2026-04-21 04:32 33.96953 -118.23381 2210 ft 225 kts 262°
2026-04-21 04:32 33.96756 -118.25177 2197 ft 209 kts 263°
2026-04-21 04:33 33.96579 -118.26859 2175 ft 200 kts 263°
2026-04-21 04:33 33.96411 -118.28492 2049 ft 188 kts 262°
2026-04-21 04:33 33.96258 -118.29982 1886 ft 177 kts 262°
2026-04-21 04:33 33.96118 -118.31343 1653 ft 164 kts 261°
2026-04-21 04:34 33.95981 -118.32673 1381 ft 157 kts 262°
2026-04-21 04:34 33.95856 -118.33893 1156 ft 134 kts 262°
2026-04-21 04:34 33.95750 -118.34932 977 ft 129 kts 262°
2026-04-21 04:34 33.95641 -118.35984 813 ft 126 kts 262°
2026-04-21 04:35 33.95534 -118.37028 652 ft 126 kts 262°
2026-04-21 04:35 33.95425 -118.38080 465 ft 128 kts 263°
2026-04-21 04:35 33.95322 -118.39120 301 ft 123 kts 264°
2026-04-21 04:35 33.95222 -118.40137 163 ft 123 kts 263°
2026-04-21 04:36 33.95119 -118.41158 105 ft 119 kts 262°
2026-04-21 04:36 33.95030 -118.41976 99 ft 77 kts 263°
2026-04-21 04:36 33.94989 -118.42349 102 ft 17 kts 262°
2026-04-21 04:36 33.94956 -118.42493 99 ft 19 kts 246°
2026-04-21 04:37 33.94882 -118.42639 103 ft 22 kts 227°
2026-04-21 04:37 33.94758 -118.42764 104 ft 25 kts 198°
2026-04-21 04:37 33.94640 -118.42775 101 ft 1 kts 174°
2026-04-21 04:37 33.94626 -118.42773 100 ft 3 kts 174°
2026-04-21 04:38 33.94619 -118.42773 102 ft 0 kts 174°
2026-04-21 04:38 33.94613 -118.42772 100 ft 2 kts 174°
2026-04-21 04:39 33.94594 -118.42770 100 ft 4 kts 172°
2026-04-21 04:39 33.94567 -118.42747 100 ft 6 kts 122°
2026-04-21 04:39 33.94562 -118.42681 101 ft 10 kts 82°
2026-04-21 04:39 33.94571 -118.42586 99 ft 14 kts 84°
2026-04-21 04:40 33.94583 -118.42453 99 ft 18 kts 84°
2026-04-21 04:40 33.94599 -118.42288 99 ft 22 kts 82°
2026-04-21 04:40 33.94618 -118.42090 100 ft 26 kts 84°
2026-04-21 04:40 33.94630 -118.41870 101 ft 27 kts 88°
2026-04-21 04:41 33.94656 -118.41638 98 ft 29 kts 83°
2026-04-21 04:41 33.94679 -118.41400 98 ft 30 kts 83°
2026-04-21 04:41 33.94706 -118.41212 99 ft 20 kts 63°
2026-04-21 04:41 33.94734 -118.41048 100 ft 21 kts 85°
2026-04-21 04:42 33.94751 -118.40897 99 ft 3 kts 82°
2026-04-21 04:42 33.94756 -118.40861 99 ft 6 kts 82°
2026-04-21 04:42 33.94756 -118.40806 101 ft 8 kts 115°
2026-04-21 04:42 33.94709 -118.40784 100 ft 0 kts 159°